{"data":{"norad_id":68951,"epoch":"2026-05-25T04:00:03.998880Z","epoch_age_seconds":70807,"freshness":"FRESH","line1":"1 68951U 26099A   26145.16671295 -.01897702  00000+0 -20436-1 0  9991","line2":"2 68951  53.1590 270.1283 0000944  79.5439 186.0186 15.66147626  4964","mean_motion":15.66147626,"eccentricity":9.44e-5,"inclination_deg":53.159,"raan_deg":270.1283,"arg_perigee_deg":79.5439,"mean_anomaly_deg":186.0186,"bstar":-0.020436,"rev_number":496,"period_min":91.945355348002,"perigee_km":369.30320092612,"apogee_km":370.57723790515,"semimajor_km":6748.0772194156,"source":"CELESTRAK","updated_at":"2026-05-25T13:38:22.071647Z"}}